Location: Newark
(50.4348°N, 30.5552°E)
Time: 11:56:34
(UTC+00:00)

deb Explorer IX - Visible Passes

Search period start: 24 January 2020 00:00
Search period end: 03 February 2020 00:00
Orbit: 548 x 1101 km, 38.8° (Epoch: 23 January)

Date Brightness Start Highest point End Pass type
(mag) Time Alt. Az. Time Alt. Az. Time Alt. Az.
28 Jan ? 18:24:21 10° SSW 18:24:42 11° SSW 18:24:42 11° SSW visible
29 Jan ? 18:01:59 10° SSW 18:03:48 16° S 18:03:48 16° S visible
30 Jan ? 17:39:40 10° SSW 17:42:50 20° S 17:42:50 20° S visible
31 Jan ? 17:17:20 10° SSW 17:21:49 21° SSE 17:21:49 21° SSE visible
31 Jan ? 19:02:23 10° SW 19:03:11 13° SW 19:03:11 13° SW visible
01 Feb ? 16:55:02 10° SSW 16:59:28 21° SSE 17:00:46 19° SE visible
01 Feb ? 18:40:01 10° SW 18:42:07 19° SW 18:42:07 19° SW visible
02 Feb ? 16:32:45 10° SSW 16:37:01 20° SSE 16:39:39 16° SE visible
02 Feb ? 18:17:42 10° SW 18:21:00 25° SSW 18:21:00 25° SSW visible
